sat.trackr.live / text

‹ back to catalog

ONEWEB-0604

NORAD 54668 · 2022-166AC

PAYLOAD ACTIVE UNKNOWN

§ Identity

Operator
Country
UK
Launch date
2022-12-08
Launch site
AFETR
Launch vehicle
Mass (kg)
RCS (m²)

Purposes: comms

External: N2YO · Heavens-Above · Gunter

§ Orbital elements

Epoch: 2026-09-18T15:06:50.018112Z

Period
108.94 min
Inclination
87.9276°
Eccentricity
0.0002067
Mean motion
13.21826500 rev/d
Perigee alt
1,176.2 km
Apogee alt
1,179.3 km
Semi-major
7,555.9 km
B*
7.1338e-6
RAAN
225.3789°
Arg perigee
78.0033°
Mean anomaly
282.1332°
Rev number
18,378

§ Raw data

ONEWEB-06041 54668U 22166AC  26261.62974558  .00000016  00000+0  71338-5 0  99922 54668  87.9276 225.3789 0002067  78.0033 282.1332 13.21826500183788

JSON: /api/v1/satellites/54668 · /tle

For live sub-satellite position, see the globe view (requires WebGL).

§ Visibility from observer

Set your observer location to see the next 7 days of passes ≥ 10°. The values pass through the URL so the page stays shareable.

No JS? Fill the form by hand. The geolocation button needs JavaScript.